Zurich Airport, Switzerland

1:11 PM CEST on July 26, 2016 (GMT +0200)
Zurich Airport

Weather History for LSZH - September, 2013

Change the Weather History Date:

Tuesday, September 17, 2013

  Actual Average Record
Temperature  
Mean Temperature 50 °F -  
Max Temperature 55 °F 60 °F 77 °F (1997)
Min Temperature 44 °F 44 °F 37 °F (1996)
Degree Days  
Heating Degree Days 16    
Moisture  
Dew Point 43 °F    
Average Humidity 72    
Maximum Humidity 93    
Minimum Humidity 46    
Precipitation  
Precipitation 0.12 in - - ()
Sea Level Pressure  
Sea Level Pressure 29.81 in    
Wind  
Wind Speed 8 mph ()    
Max Wind Speed 17 mph    
Max Gust Speed 28 mph    
Visibility 6.1 miles    
Events Rain    
Averages and records for this station are not official NWS values.
T = Trace of Precipitation, MM = Missing Value Source: Averaged Metar Reports

Daily Weather History Graph

Daily Weather History Graph

Search for Another Location

Airport or City:

Trip Planner

Search our weather history database for the weather conditions in past years. The results will help you decide how hot, cold, wet, or windy it might be!

Date:

Astronomy

Sep. 17, 2013 Rise Set
Actual Time 7:05 AM CEST 7:33 PM CEST
Civil Twilight 6:35 AM CEST 8:04 PM CEST
Nautical Twilight 5:58 AM CEST 8:41 PM CEST
Astronomical Twilight 5:20 AM CEST 9:18 PM CEST
Moon 6:15 PM CEST (9/17) 4:34 AM CEST (9/17)
Length of Visible Light 13h 29m
Length of Day
12h 27m
Waxing Gibbous, 94% of the Moon is Illuminated
Sep 17
Waxing Gibbous
Sep 19
Full
Sep 27
Last Quarter
Oct 5
New
Oct 12
First Quarter

Hourly Weather History & Observations

Time (CEST) Temp. Windchill Dew Point Humidity Pressure Visibility Wind Dir Wind Speed Gust Speed Precip Events Conditions
12:00 AM 51 °F - 46 °F 76% 29.75 in - WSW 8.1 mph - -  
12:20 AM 50.0 °F - 46.4 °F 87% 29.74 in 6.2 mi SW 5.8 mph - N/A   Mostly Cloudy
12:50 AM 50.0 °F - 44.6 °F 82% 29.74 in 3.7 mi WSW 11.5 mph - N/A Rain Light Rain Showers
1:00 AM 49 °F - 45 °F 81% 29.76 in - WSW 10.4 mph - -  
1:20 AM 48.2 °F - 44.6 °F 87% 29.77 in 3.1 mi WSW 10.4 mph - N/A Rain Light Rain Showers
1:50 AM 48.2 °F - 44.6 °F 87% 29.77 in 3.1 mi West 6.9 mph - N/A Rain Rain Showers
2:00 AM 48 °F - 45 °F 85% 29.80 in 3 mi West 4.6 mph - - Rain Heavy Rain Showers
2:50 AM 46.4 °F 44.3 °F 44.6 °F 93% 29.77 in 6.2 mi South 4.6 mph - N/A   Mostly Cloudy
3:00 AM 47 °F - 44 °F 84% 29.81 in - SSW 3.5 mph - -  
3:20 AM 46.4 °F 43.5 °F 42.8 °F 87% 29.77 in 6.2 mi SSW 5.8 mph - N/A   Mostly Cloudy
3:50 AM 46.4 °F 44.3 °F 42.8 °F 87% 29.77 in 6.2 mi SW 4.6 mph - N/A   Scattered Clouds
4:00 AM 46 °F - 43 °F 84% 29.81 in - SSW 4.6 mph - -  
4:20 AM 46.4 °F 45.2 °F 42.8 °F 87% 29.77 in 6.2 mi SSW 3.5 mph - N/A   Mostly Cloudy
4:50 AM 46.4 °F 45.2 °F 42.8 °F 87% 29.77 in 6.2 mi SW 3.5 mph - N/A   Mostly Cloudy
5:20 AM 46.4 °F - 42.8 °F 87% 29.77 in 6.2 mi Variable 2.3 mph - N/A   Mostly Cloudy
5:50 AM 46.4 °F - 42.8 °F 87% 29.80 in 6.2 mi Variable 1.2 mph - N/A   Mostly Cloudy
6:00 AM 46 °F - 43 °F 85% 29.82 in - SW 3.5 mph - -  
6:20 AM 46.4 °F - 42.8 °F 87% 29.80 in 6.2 mi Calm Calm - N/A   Mostly Cloudy
6:50 AM 46.4 °F - 42.8 °F 87% 29.80 in 6.2 mi Variable 1.2 mph - N/A   Mostly Cloudy
7:00 AM 47 °F - 43 °F 80% 29.83 in - WSW 2.3 mph - -  
7:20 AM 46.4 °F 42.9 °F 41.0 °F 81% 29.83 in 6.2 mi WSW 6.9 mph 18.4 mph N/A   Mostly Cloudy
7:50 AM 44.6 °F 38.8 °F 39.2 °F 81% 29.83 in 6.2 mi SW 11.5 mph - N/A   Mostly Cloudy
8:00 AM 44 °F - 40 °F 80% 29.87 in 12 mi WSW 6.9 mph - - Rain Light Rain Showers
8:20 AM 44.6 °F 41.4 °F 41.0 °F 87% 29.83 in 6.2 mi SW 5.8 mph - N/A   Mostly Cloudy
8:50 AM 48.2 °F - 42.8 °F 82% 29.83 in 6.2 mi Variable 3.5 mph - N/A   Scattered Clouds
9:00 AM 49 °F - 44 °F 76% 29.86 in - WSW 6.9 mph - -  
9:20 AM 50.0 °F - 42.8 °F 76% 29.86 in 6.2 mi SW 10.4 mph - N/A   Scattered Clouds
9:50 AM 50.0 °F - 42.8 °F 76% 29.86 in 6.2 mi WSW 9.2 mph - N/A   Scattered Clouds
10:00 AM 51 °F - 43 °F 66% 29.87 in - WSW 10.4 mph - -  
10:20 AM 51.8 °F - 44.6 °F 76% 29.86 in 6.2 mi SW 10.4 mph - N/A   Scattered Clouds
10:50 AM 51.8 °F - 42.8 °F 71% 29.86 in 6.2 mi SW 12.7 mph - N/A   Partly Cloudy
11:20 AM 51.8 °F - 41.0 °F 67% 29.86 in 6.2 mi WSW 13.8 mph - N/A   Scattered Clouds
11:50 AM 51.8 °F - 41.0 °F 67% 29.86 in 6.2 mi SSW 12.7 mph - N/A   Scattered Clouds
12:00 PM 53 °F - 41 °F 52% 29.86 in - SW 11.5 mph - -  
12:20 PM 53.6 °F - 41.0 °F 62% 29.86 in 6.2 mi SW 13.8 mph - N/A   Scattered Clouds
12:50 PM 53.6 °F - 42.8 °F 67% 29.86 in 6.2 mi SW 15.0 mph - N/A   Scattered Clouds
1:00 PM 55 °F - 40 °F 46% 29.85 in - SW 13.8 mph - -  
1:20 PM 55.4 °F - 41.0 °F 58% 29.86 in 6.2 mi SW 16.1 mph 27.6 mph N/A   Scattered Clouds
1:50 PM 53.6 °F - 41.0 °F 62% 29.86 in 6.2 mi SW 17.3 mph - N/A   Mostly Cloudy
2:00 PM 55 °F - 41 °F 49% 29.86 in 22 mi WSW 15.0 mph - - Rain Light Rain Showers
2:20 PM 53.6 °F - 42.8 °F 67% 29.86 in 6.2 mi SW 16.1 mph - N/A Rain Rain Showers
2:50 PM 55.4 °F - 42.8 °F 63% 29.83 in 6.2 mi WSW 13.8 mph - N/A   Scattered Clouds
3:00 PM 55 °F - 42 °F 52% 29.84 in - WSW 11.5 mph - -  
3:20 PM 53.6 °F - 44.6 °F 72% 29.83 in 6.2 mi SW 15.0 mph - N/A Rain Light Rain Showers
3:50 PM 53.6 °F - 46.4 °F 77% 29.83 in 6.2 mi SW 8.1 mph - N/A   Mostly Cloudy
4:00 PM 53 °F - 45 °F 67% 29.84 in - WSW 9.2 mph - -  
4:20 PM 51.8 °F - 42.8 °F 71% 29.83 in 6.2 mi WSW 11.5 mph - N/A Rain Rain Showers
4:50 PM 53.6 °F - 44.6 °F 72% 29.83 in 6.2 mi SW 10.4 mph - N/A   Mostly Cloudy
5:20 PM 55.4 °F - 44.6 °F 67% 29.83 in 6.2 mi SW 9.2 mph - N/A   Mostly Cloudy
5:50 PM 53.6 °F - 42.8 °F 67% 29.80 in 6.2 mi SSW 11.5 mph 23.0 mph N/A   Mostly Cloudy
6:00 PM 55 °F - 42 °F 50% 29.81 in - SW 13.8 mph - -  
6:20 PM 53.6 °F - 42.8 °F 67% 29.80 in 6.2 mi SW 12.7 mph - N/A   Mostly Cloudy
6:50 PM 53.6 °F - 42.8 °F 67% 29.80 in 6.2 mi SW 13.8 mph - N/A   Mostly Cloudy
7:00 PM 53 °F - 42 °F 56% 29.81 in - WSW 12.7 mph - -  
7:20 PM 53.6 °F - 42.8 °F 67% 29.80 in 6.2 mi SW 10.4 mph - N/A   Mostly Cloudy
7:50 PM 53.6 °F - 42.8 °F 67% 29.80 in 6.2 mi SW 8.1 mph - N/A   Mostly Cloudy
8:00 PM 53 °F - 42 °F 55% 29.81 in 22 mi WSW 10.4 mph - -   Overcast
8:20 PM 53.6 °F - 42.8 °F 67% 29.80 in 6.2 mi SW 8.1 mph - N/A   Mostly Cloudy
8:50 PM 53.6 °F - 42.8 °F 67% 29.80 in 6.2 mi SW 8.1 mph - N/A   Mostly Cloudy
9:00 PM 53 °F - 42 °F 55% 29.81 in - WSW 8.1 mph - -  
9:20 PM 53.6 °F - 42.8 °F 67% 29.80 in 6.2 mi SW 6.9 mph - N/A   Overcast
9:50 PM 53.6 °F - 41.0 °F 62% 29.80 in 6.2 mi SW 8.1 mph - N/A   Overcast
10:00 PM 53 °F - 41 °F 53% 29.79 in - SW 10.4 mph - -  
10:20 PM 53.6 °F - 41.0 °F 62% 29.77 in 6.2 mi SW 10.4 mph - N/A Rain Light Rain
10:50 PM 51.8 °F - 42.8 °F 71% 29.77 in 6.2 mi SW 12.7 mph - N/A Rain Light Rain
11:20 PM 51.8 °F - 44.6 °F 76% 29.74 in 6.2 mi SSW 9.2 mph - N/A Rain Light Rain
11:50 PM 50.0 °F - 44.6 °F 82% 29.74 in 6.2 mi South 8.1 mph - N/A Rain Light Rain